sat.trackr.live / text

‹ back to catalog

VIASAT-3 F2

NORAD 66454 · 2025-261A

PAYLOAD ACTIVE UNKNOWN

§ Identity

Operator
Country
US
Launch date
2025-11-14
Launch site
AFETR
Launch vehicle
Mass (kg)
RCS (m²)

Purposes: comms

External: N2YO · Heavens-Above · Gunter

§ Orbital elements

Epoch: 2026-09-20T01:50:32.572032Z

Period
1,436.08 min
Inclination
0.0051°
Eccentricity
0.0000910
Mean motion
1.00272636 rev/d
Perigee alt
35,782.5 km
Apogee alt
35,790.2 km
Semi-major
42,164.5 km
B*
0.0000e+0
RAAN
203.9585°
Arg perigee
59.9525°
Mean anomaly
43.7157°
Rev number
374

§ Raw data

VIASAT-3 F21 66454U 25261A   26263.07676588 -.00000238  00000+0  00000+0 0  99992 66454   0.0051 203.9585 0000910  59.9525  43.7157  1.00272636  3748

JSON: /api/v1/satellites/66454 · /tle

For live sub-satellite position, see the globe view (requires WebGL).

§ Visibility from observer

Set your observer location to see the next 7 days of passes ≥ 10°. The values pass through the URL so the page stays shareable.

No JS? Fill the form by hand. The geolocation button needs JavaScript.